Time,TemperatureF,DewpointF,PressureIn,WindDirection,WindDirectionDegrees,WindSpeedMPH,WindSpeedGustMPH,Humidity,HourlyPrecipIn,Conditions,Clouds,dailyrainin,SoftwareType,DateUTC
2013-01-22 00:02:00,-9.0,-21.0,-100.00,ESE,120,2.0,8.0,55,-99.99,,,-99.99,,2013-01-22 06:02:00,
2013-01-22 00:12:00,-10.0,-21.0,-100.00,SSE,160,3.0,7.0,55,-99.99,,,-99.99,,2013-01-22 06:12:00,
2013-01-22 00:22:00,-10.0,-21.0,-100.00,SSE,160,3.0,7.0,55,-99.99,,,-99.99,,2013-01-22 06:22:00,
2013-01-22 00:32:00,-10.0,-21.0,-100.00,SSE,160,3.0,7.0,55,-99.99,,,-99.99,,2013-01-22 06:32:00,
2013-01-22 00:42:00,-10.0,-21.0,-100.00,SSE,155,4.0,9.0,56,-99.99,,,-99.99,,2013-01-22 06:42:00,
2013-01-22 00:53:00,-10.0,-21.0,-100.00,SSE,155,4.0,9.0,56,-99.99,,,-99.99,,2013-01-22 06:53:00,
2013-01-22 01:02:00,-10.0,-21.0,-100.00,SSE,155,4.0,9.0,56,-99.99,,,-99.99,,2013-01-22 07:02:00,
2013-01-22 01:12:00,-10.0,-21.0,-100.00,SSE,150,3.0,7.0,57,-99.99,,,-99.99,,2013-01-22 07:12:00,
2013-01-22 01:22:00,-10.0,-21.0,-100.00,SSE,150,3.0,7.0,57,-99.99,,,-99.99,,2013-01-22 07:22:00,
2013-01-22 01:32:00,-10.0,-21.0,-100.00,SSE,150,3.0,7.0,57,-99.99,,,-99.99,,2013-01-22 07:32:00,
2013-01-22 01:42:00,-10.0,-21.0,-100.00,SSE,150,2.0,6.0,58,-99.99,,,-99.99,,2013-01-22 07:42:00,
2013-01-22 01:53:00,-10.0,-21.0,-100.00,SSE,150,2.0,6.0,58,-99.99,,,-99.99,,2013-01-22 07:53:00,
2013-01-22 02:02:00,-10.0,-21.0,-100.00,SSE,150,2.0,6.0,58,-99.99,,,-99.99,,2013-01-22 08:02:00,
2013-01-22 02:12:00,-10.0,-21.0,-100.00,ESE,105,3.0,7.0,59,-99.99,,,-99.99,,2013-01-22 08:12:00,
2013-01-22 02:22:00,-10.0,-21.0,-100.00,ESE,105,3.0,7.0,59,-99.99,,,-99.99,,2013-01-22 08:22:00,
2013-01-22 02:32:00,-10.0,-21.0,-100.00,ESE,105,3.0,7.0,59,-99.99,,,-99.99,,2013-01-22 08:32:00,
2013-01-22 02:42:00,-10.0,-20.0,-100.00,ESE,115,4.0,7.0,60,-99.99,,,-99.99,,2013-01-22 08:42:00,
2013-01-22 02:52:00,-10.0,-20.0,-100.00,ESE,115,4.0,7.0,60,-99.99,,,-99.99,,2013-01-22 08:52:00,
2013-01-22 03:02:00,-10.0,-20.0,-100.00,ESE,115,4.0,7.0,60,-99.99,,,-99.99,,2013-01-22 09:02:00,
2013-01-22 03:12:00,-10.0,-20.0,-100.00,ESE,120,2.0,9.0,60,-99.99,,,-99.99,,2013-01-22 09:12:00,
2013-01-22 03:22:00,-10.0,-20.0,-100.00,ESE,120,2.0,9.0,60,-99.99,,,-99.99,,2013-01-22 09:22:00,
2013-01-22 03:32:00,-10.0,-20.0,-100.00,ESE,120,2.0,9.0,60,-99.99,,,-99.99,,2013-01-22 09:32:00,
2013-01-22 03:42:00,-10.0,-20.0,-100.00,SE,140,4.0,9.0,61,-99.99,,,-99.99,,2013-01-22 09:42:00,
2013-01-22 03:52:00,-10.0,-20.0,-100.00,SE,140,4.0,9.0,61,-99.99,,,-99.99,,2013-01-22 09:52:00,
2013-01-22 04:02:00,-10.0,-20.0,-100.00,SE,140,4.0,9.0,61,-99.99,,,-99.99,,2013-01-22 10:02:00,
2013-01-22 04:12:00,-10.0,-20.0,-100.00,ESE,105,4.0,9.0,61,-99.99,,,-99.99,,2013-01-22 10:12:00,
2013-01-22 04:22:00,-10.0,-20.0,-100.00,ESE,105,4.0,9.0,61,-99.99,,,-99.99,,2013-01-22 10:22:00,
2013-01-22 04:32:00,-10.0,-20.0,-100.00,ESE,105,4.0,9.0,61,-99.99,,,-99.99,,2013-01-22 10:32:00,
2013-01-22 04:42:00,-10.0,-20.0,-100.00,SSE,150,4.0,9.0,62,-99.99,,,-99.99,,2013-01-22 10:42:00,
2013-01-22 04:52:00,-10.0,-20.0,-100.00,SSE,150,4.0,9.0,62,-99.99,,,-99.99,,2013-01-22 10:52:00,
2013-01-22 05:02:00,-10.0,-20.0,-100.00,SSE,150,4.0,9.0,62,-99.99,,,-99.99,,2013-01-22 11:02:00,
2013-01-22 05:12:00,-10.0,-20.0,-100.00,SE,145,4.0,10.0,62,-99.99,,,-99.99,,2013-01-22 11:12:00,
2013-01-22 05:22:00,-10.0,-20.0,-100.00,SE,145,4.0,10.0,62,-99.99,,,-99.99,,2013-01-22 11:22:00,
2013-01-22 05:33:00,-10.0,-20.0,-100.00,SE,145,4.0,10.0,62,-99.99,,,-99.99,,2013-01-22 11:33:00,
2013-01-22 05:43:00,-10.0,-20.0,-100.00,SSE,165,5.0,9.0,62,-99.99,,,-99.99,,2013-01-22 11:43:00,
2013-01-22 05:53:00,-10.0,-20.0,-100.00,SSE,165,5.0,9.0,62,-99.99,,,-99.99,,2013-01-22 11:53:00,
2013-01-22 06:03:00,-10.0,-20.0,-100.00,SSE,165,5.0,9.0,62,-99.99,,,-99.99,,2013-01-22 12:03:00,
2013-01-22 06:12:00,-11.0,-20.0,-100.00,SE,140,4.0,10.0,63,-99.99,,,-99.99,,2013-01-22 12:12:00,
2013-01-22 06:23:00,-11.0,-20.0,-100.00,SE,140,4.0,10.0,63,-99.99,,,-99.99,,2013-01-22 12:23:00,
2013-01-22 06:33:00,-11.0,-20.0,-100.00,SE,140,4.0,10.0,63,-99.99,,,-99.99,,2013-01-22 12:33:00,
2013-01-22 06:43:00,-11.0,-20.0,-100.00,SSE,155,4.0,9.0,64,-99.99,,,-99.99,,2013-01-22 12:43:00,
2013-01-22 06:53:00,-11.0,-20.0,-100.00,SSE,155,4.0,9.0,64,-99.99,,,-99.99,,2013-01-22 12:53:00,
2013-01-22 07:04:00,-11.0,-20.0,-100.00,SSE,155,4.0,9.0,64,-99.99,,,-99.99,,2013-01-22 13:04:00,
2013-01-22 07:13:00,-11.0,-20.0,-100.00,SSE,160,4.0,11.0,64,-99.99,,,-99.99,,2013-01-22 13:13:00,
2013-01-22 07:23:00,-11.0,-20.0,-100.00,SSE,160,4.0,11.0,64,-99.99,,,-99.99,,2013-01-22 13:23:00,
2013-01-22 07:33:00,-11.0,-20.0,-100.00,SSE,160,4.0,11.0,64,-99.99,,,-99.99,,2013-01-22 13:33:00,
2013-01-22 07:43:00,-11.0,-20.0,-100.00,SSE,160,2.0,8.0,65,-99.99,,,-99.99,,2013-01-22 13:43:00,
2013-01-22 07:53:00,-11.0,-20.0,-100.00,SSE,160,2.0,8.0,65,-99.99,,,-99.99,,2013-01-22 13:53:00,
2013-01-22 08:03:00,-11.0,-20.0,-100.00,SSE,160,2.0,8.0,65,-99.99,,,-99.99,,2013-01-22 14:03:00,
2013-01-22 08:13:00,-11.0,-20.0,-100.00,SE,140,4.0,7.0,65,-99.99,,,-99.99,,2013-01-22 14:13:00,
2013-01-22 08:20:00,-11.0,-19.0,-100.00,SSE,155,4.0,9.0,65,-99.99,,,-99.99,,2013-01-22 14:20:00,
2013-01-22 08:23:00,-11.0,-20.0,-100.00,SE,140,4.0,7.0,65,-99.99,,,-99.99,,2013-01-22 14:23:00,
2013-01-22 08:34:00,-11.0,-20.0,-100.00,SE,140,4.0,7.0,65,-99.99,,,-99.99,,2013-01-22 14:34:00,
2013-01-22 08:43:00,-11.0,-19.0,-100.00,SSE,155,4.0,9.0,65,-99.99,,,-99.99,,2013-01-22 14:43:00,
2013-01-22 08:54:00,-11.0,-19.0,-100.00,SSE,155,4.0,9.0,65,-99.99,,,-99.99,,2013-01-22 14:54:00,
2013-01-22 09:03:00,-11.0,-19.0,-100.00,SSE,155,4.0,9.0,65,-99.99,,,-99.99,,2013-01-22 15:03:00,
2013-01-22 09:13:00,-11.0,-19.0,-100.00,SSE,155,4.0,9.0,65,-99.99,,,-99.99,,2013-01-22 15:13:00,
2013-01-22 09:21:00,-9.0,-19.0,-100.00,SE,135,2.0,12.0,61,-99.99,,,-99.99,,2013-01-22 15:21:00,
2013-01-22 09:44:00,-9.0,-19.0,-100.00,SE,135,2.0,12.0,61,-99.99,,,-99.99,,2013-01-22 15:44:00,
2013-01-22 09:53:00,-9.0,-19.0,-100.00,SE,135,2.0,12.0,61,-99.99,,,-99.99,,2013-01-22 15:53:00,
2013-01-22 10:03:00,-9.0,-19.0,-100.00,SE,135,2.0,12.0,61,-99.99,,,-99.99,,2013-01-22 16:03:00,
2013-01-22 10:13:00,-9.0,-19.0,-100.00,SE,135,2.0,12.0,61,-99.99,,,-99.99,,2013-01-22 16:13:00,
2013-01-22 12:23:00,-3.0,-19.0,-100.00,South,180,5.0,12.0,47,-99.99,,,-99.99,,2013-01-22 18:23:00,
2013-01-22 12:44:00,-3.0,-19.0,-100.00,South,180,5.0,12.0,47,-99.99,,,-99.99,,2013-01-22 18:44:00,
2013-01-22 12:54:00,-3.0,-19.0,-100.00,South,180,5.0,12.0,47,-99.99,,,-99.99,,2013-01-22 18:54:00,
2013-01-22 13:03:00,-3.0,-19.0,-100.00,South,180,5.0,12.0,47,-99.99,,,-99.99,,2013-01-22 19:03:00,
2013-01-22 13:13:00,-3.0,-19.0,-100.00,South,180,5.0,12.0,47,-99.99,,,-99.99,,2013-01-22 19:13:00,
2013-01-22 13:23:00,2.0,-16.0,-100.00,SSE,150,4.0,10.0,43,-99.99,,,-99.99,,2013-01-22 19:23:00,
2013-01-22 13:44:00,2.0,-16.0,-100.00,SSE,150,4.0,10.0,43,-99.99,,,-99.99,,2013-01-22 19:44:00,
2013-01-22 13:54:00,2.0,-16.0,-100.00,SSE,150,4.0,10.0,43,-99.99,,,-99.99,,2013-01-22 19:54:00,
2013-01-22 14:03:00,2.0,-16.0,-100.00,SSE,150,4.0,10.0,43,-99.99,,,-99.99,,2013-01-22 20:03:00,
2013-01-22 14:13:00,2.0,-16.0,-100.00,SSE,150,4.0,10.0,43,-99.99,,,-99.99,,2013-01-22 20:13:00,
2013-01-22 15:22:00,1.0,-17.0,-100.00,SE,135,4.0,13.0,42,-99.99,,,-99.99,,2013-01-22 21:22:00,
2013-01-22 15:43:00,1.0,-17.0,-100.00,SE,135,4.0,13.0,42,-99.99,,,-99.99,,2013-01-22 21:43:00,
2013-01-22 15:53:00,1.0,-17.0,-100.00,SE,135,4.0,13.0,42,-99.99,,,-99.99,,2013-01-22 21:53:00,
2013-01-22 16:03:00,1.0,-17.0,-100.00,SE,135,4.0,13.0,42,-99.99,,,-99.99,,2013-01-22 22:03:00,
2013-01-22 16:12:00,1.0,-17.0,-100.00,SE,135,4.0,13.0,42,-99.99,,,-99.99,,2013-01-22 22:12:00,
2013-01-22 17:20:00,-1.0,-16.0,-100.00,SE,140,2.0,7.0,49,-99.99,,,-99.99,,2013-01-22 23:20:00,
2013-01-22 17:43:00,-1.0,-16.0,-100.00,SE,140,2.0,7.0,49,-99.99,,,-99.99,,2013-01-22 23:43:00,
2013-01-22 17:53:00,-1.0,-16.0,-100.00,SE,140,2.0,7.0,49,-99.99,,,-99.99,,2013-01-22 23:53:00,
2013-01-22 18:03:00,-1.0,-16.0,-100.00,SE,140,2.0,7.0,49,-99.99,,,-99.99,,2013-01-23 00:03:00,
2013-01-22 18:12:00,-1.0,-16.0,-100.00,SE,140,2.0,7.0,49,-99.99,,,-99.99,,2013-01-23 00:12:00,
2013-01-22 18:21:00,-2.0,-15.0,-100.00,ESE,115,2.0,7.0,51,-99.99,,,-99.99,,2013-01-23 00:21:00,
2013-01-22 18:43:00,-2.0,-15.0,-100.00,ESE,115,2.0,7.0,51,-99.99,,,-99.99,,2013-01-23 00:43:00,
2013-01-22 18:52:00,-2.0,-15.0,-100.00,ESE,115,2.0,7.0,51,-99.99,,,-99.99,,2013-01-23 00:52:00,
2013-01-22 19:03:00,-2.0,-15.0,-100.00,ESE,115,2.0,7.0,51,-99.99,,,-99.99,,2013-01-23 01:03:00,
2013-01-22 19:13:00,-2.0,-15.0,-100.00,ESE,115,2.0,7.0,51,-99.99,,,-99.99,,2013-01-23 01:13:00,
2013-01-22 19:23:00,-1.0,-14.0,-100.00,SSE,155,4.0,9.0,53,-99.99,,,-99.99,,2013-01-23 01:23:00,
2013-01-22 19:43:00,-1.0,-14.0,-100.00,SSE,155,4.0,9.0,53,-99.99,,,-99.99,,2013-01-23 01:43:00,
2013-01-22 19:53:00,-1.0,-14.0,-100.00,SSE,155,4.0,9.0,53,-99.99,,,-99.99,,2013-01-23 01:53:00,
2013-01-22 20:03:00,-1.0,-14.0,-100.00,SSE,155,4.0,9.0,53,-99.99,,,-99.99,,2013-01-23 02:03:00,
2013-01-22 20:12:00,-1.0,-14.0,-100.00,SSE,155,4.0,9.0,53,-99.99,,,-99.99,,2013-01-23 02:12:00,
2013-01-22 20:23:00,-3.0,-15.0,-100.00,South,180,1.0,7.0,54,-99.99,,,-99.99,,2013-01-23 02:23:00,
2013-01-22 20:43:00,-3.0,-15.0,-100.00,South,180,1.0,7.0,54,-99.99,,,-99.99,,2013-01-23 02:43:00,
2013-01-22 20:53:00,-3.0,-15.0,-100.00,South,180,1.0,7.0,54,-99.99,,,-99.99,,2013-01-23 02:53:00,
2013-01-22 21:03:00,-3.0,-15.0,-100.00,South,180,1.0,7.0,54,-99.99,,,-99.99,,2013-01-23 03:03:00,
2013-01-22 21:13:00,-3.0,-15.0,-100.00,South,180,1.0,7.0,54,-99.99,,,-99.99,,2013-01-23 03:13:00,
2013-01-22 22:43:00,-8.0,-18.0,-100.00,ENE,75,0.0,0.0,61,-99.99,,,-99.99,,2013-01-23 04:43:00,
2013-01-22 22:53:00,-8.0,-18.0,-100.00,ENE,75,0.0,0.0,61,-99.99,,,-99.99,,2013-01-23 04:53:00,
2013-01-22 23:03:00,-8.0,-18.0,-100.00,ENE,75,0.0,0.0,61,-99.99,,,-99.99,,2013-01-23 05:03:00,
2013-01-22 23:12:00,-8.0,-18.0,-100.00,ENE,75,0.0,0.0,61,-99.99,,,-99.99,,2013-01-23 05:12:00,
2013-01-22 23:21:00,-8.0,-16.0,-100.00,NE,45,0.0,1.0,65,-99.99,,,-99.99,,2013-01-23 05:21:00,
2013-01-22 23:22:00,-8.0,-18.0,-100.00,ENE,75,0.0,0.0,61,-99.99,,,-99.99,,2013-01-23 05:22:00,
2013-01-22 23:43:00,-8.0,-16.0,-100.00,NE,45,0.0,1.0,65,-99.99,,,-99.99,,2013-01-23 05:43:00,
2013-01-22 23:53:00,-8.0,-16.0,-100.00,NE,45,0.0,1.0,65,-99.99,,,-99.99,,2013-01-23 05:53:00,